Year,Month,Day,Hour,Minute,Value (Times are PST for temperature in C)
2016,08,25,00,00,15.30
2016,08,25,00,01,15.30
2016,08,25,00,02,15.30
2016,08,25,00,03,15.30
2016,08,25,00,04,15.30
2016,08,25,00,05,15.30
2016,08,25,00,06,15.30
2016,08,25,00,07,15.30
2016,08,25,00,08,15.20
2016,08,25,00,09,15.20
2016,08,25,00,10,15.20
2016,08,25,00,11,15.20
2016,08,25,00,12,15.20
2016,08,25,00,13,15.20
2016,08,25,00,14,15.20
2016,08,25,00,15,15.20
2016,08,25,00,16,15.20
2016,08,25,00,17,15.10
2016,08,25,00,18,15.10
2016,08,25,00,19,15.10
2016,08,25,00,20,15.10
2016,08,25,00,21,15.00
2016,08,25,00,22,15.00
2016,08,25,00,23,15.00
2016,08,25,00,24,15.00
2016,08,25,00,25,15.00
2016,08,25,00,26,15.00
2016,08,25,00,27,15.00
2016,08,25,00,28,15.00
2016,08,25,00,29,15.00
2016,08,25,00,30,15.00
2016,08,25,00,31,15.00
2016,08,25,00,32,15.00
2016,08,25,00,33,15.00
2016,08,25,00,34,15.00
2016,08,25,00,35,15.00
2016,08,25,00,36,15.00
2016,08,25,00,37,15.00
2016,08,25,00,38,15.00
2016,08,25,00,39,15.00
2016,08,25,00,40,15.00
2016,08,25,00,41,15.00
2016,08,25,00,42,15.00
2016,08,25,00,43,15.00
2016,08,25,00,44,15.00
2016,08,25,00,45,15.00
2016,08,25,00,46,15.00
2016,08,25,00,47,15.00
2016,08,25,00,48,15.00
2016,08,25,00,49,15.00
2016,08,25,00,50,15.00
2016,08,25,00,51,15.00
2016,08,25,00,52,15.00
2016,08,25,00,53,15.00
2016,08,25,00,54,15.00
2016,08,25,00,55,15.00
2016,08,25,00,56,15.00
2016,08,25,00,57,15.00
2016,08,25,00,58,15.00
2016,08,25,00,59,15.00
2016,08,25,01,00,15.00
2016,08,25,01,01,14.90
2016,08,25,01,02,14.90
2016,08,25,01,03,14.90
2016,08,25,01,04,14.90
2016,08,25,01,05,14.90
2016,08,25,01,06,14.80
2016,08,25,01,07,14.80
2016,08,25,01,08,14.80
2016,08,25,01,09,14.80
2016,08,25,01,10,14.80
2016,08,25,01,11,14.80
2016,08,25,01,12,14.80
2016,08,25,01,13,14.80
2016,08,25,01,14,14.80
2016,08,25,01,15,14.70
2016,08,25,01,16,14.70
2016,08,25,01,17,14.70
2016,08,25,01,18,14.70
2016,08,25,01,19,14.70
2016,08,25,01,20,14.70
2016,08,25,01,21,14.70
2016,08,25,01,22,14.70
2016,08,25,01,23,14.70
2016,08,25,01,24,14.70
2016,08,25,01,25,14.70
2016,08,25,01,26,14.70
2016,08,25,01,27,14.70
2016,08,25,01,28,14.70
2016,08,25,01,29,14.70
2016,08,25,01,30,14.60
2016,08,25,01,31,14.60
2016,08,25,01,32,14.60
2016,08,25,01,33,14.60
2016,08,25,01,34,14.60
2016,08,25,01,35,14.60
2016,08,25,01,36,14.60
2016,08,25,01,37,14.60
2016,08,25,01,38,14.60
2016,08,25,01,39,14.60
2016,08,25,01,40,14.60
2016,08,25,01,41,14.60
2016,08,25,01,42,14.60
2016,08,25,01,43,14.60
2016,08,25,01,44,14.50
2016,08,25,01,45,14.50
2016,08,25,01,46,14.50
2016,08,25,01,47,14.50
2016,08,25,01,48,14.40
2016,08,25,01,49,14.40
2016,08,25,01,50,14.40
2016,08,25,01,51,14.40
2016,08,25,01,52,14.40
2016,08,25,01,53,14.40
2016,08,25,01,54,14.40
2016,08,25,01,55,14.40
2016,08,25,01,56,14.40
2016,08,25,01,57,14.40
2016,08,25,01,58,14.40
2016,08,25,01,59,14.40
2016,08,25,02,00,14.40
2016,08,25,02,01,14.40
2016,08,25,02,02,14.40
2016,08,25,02,03,14.40
2016,08,25,02,04,14.40
2016,08,25,02,05,14.40
2016,08,25,02,06,14.40
2016,08,25,02,07,14.40
2016,08,25,02,08,14.40
2016,08,25,02,09,14.40
2016,08,25,02,10,14.30
2016,08,25,02,11,14.30
2016,08,25,02,12,14.30
2016,08,25,02,13,14.30
2016,08,25,02,14,14.30
2016,08,25,02,15,14.30
2016,08,25,02,16,14.30
2016,08,25,02,17,14.30
2016,08,25,02,18,14.30
2016,08,25,02,19,14.30
2016,08,25,02,20,14.30
2016,08,25,02,21,14.30
2016,08,25,02,22,14.30
2016,08,25,02,23,14.30
2016,08,25,02,24,14.30
2016,08,25,02,25,14.30
2016,08,25,02,26,14.20
2016,08,25,02,27,14.20
2016,08,25,02,28,14.20
2016,08,25,02,29,14.20
2016,08,25,02,30,14.20
2016,08,25,02,31,14.20
2016,08,25,02,32,14.20
2016,08,25,02,33,14.20
2016,08,25,02,34,14.20
2016,08,25,02,35,14.10
2016,08,25,02,36,14.10
2016,08,25,02,37,14.10
2016,08,25,02,38,14.10
2016,08,25,02,39,14.10
2016,08,25,02,40,14.10
2016,08,25,02,41,14.10
2016,08,25,02,42,14.10
2016,08,25,02,43,14.10
2016,08,25,02,44,14.10
2016,08,25,02,45,14.10
2016,08,25,02,46,14.10
2016,08,25,02,47,14.10
2016,08,25,02,48,14.10
2016,08,25,02,49,14.00
2016,08,25,02,50,14.00
2016,08,25,02,51,14.00
2016,08,25,02,52,14.00
2016,08,25,02,53,14.00
2016,08,25,02,54,14.00
2016,08,25,02,55,14.00
2016,08,25,02,56,13.90
2016,08,25,02,57,13.90
2016,08,25,02,58,13.90
2016,08,25,02,59,13.90
2016,08,25,03,00,13.90
2016,08,25,03,01,13.90
2016,08,25,03,02,13.90
2016,08,25,03,03,13.90
2016,08,25,03,04,13.80
2016,08,25,03,05,13.80
2016,08,25,03,06,13.80
2016,08,25,03,07,13.80
2016,08,25,03,08,13.80
2016,08,25,03,09,13.80
2016,08,25,03,10,13.80
2016,08,25,03,11,13.70
2016,08,25,03,12,13.70
2016,08,25,03,13,13.70
2016,08,25,03,14,13.70
2016,08,25,03,15,13.70
2016,08,25,03,16,13.70
2016,08,25,03,17,13.70
2016,08,25,03,18,13.70
2016,08,25,03,19,13.70
2016,08,25,03,20,13.60
2016,08,25,03,21,13.60
2016,08,25,03,22,13.60
2016,08,25,03,23,13.60
2016,08,25,03,24,13.60
2016,08,25,03,25,13.60
2016,08,25,03,26,13.60
2016,08,25,03,27,13.50
2016,08,25,03,28,13.50
2016,08,25,03,29,13.50
2016,08,25,03,30,13.40
2016,08,25,03,31,13.40
2016,08,25,03,32,13.40
2016,08,25,03,33,13.40
2016,08,25,03,34,13.40
2016,08,25,03,35,13.40
2016,08,25,03,36,13.30
2016,08,25,03,37,13.30
2016,08,25,03,38,13.30
2016,08,25,03,39,13.30
2016,08,25,03,40,13.30
2016,08,25,03,41,13.30
2016,08,25,03,42,13.30
2016,08,25,03,43,13.30
2016,08,25,03,44,13.30
2016,08,25,03,45,13.20
2016,08,25,03,46,13.20
2016,08,25,03,47,13.20
2016,08,25,03,48,13.20
2016,08,25,03,49,13.20
2016,08,25,03,50,13.20
2016,08,25,03,51,13.30
2016,08,25,03,52,13.30
2016,08,25,03,53,13.20
2016,08,25,03,54,13.20
2016,08,25,03,55,13.20
2016,08,25,03,56,13.20
2016,08,25,03,57,13.20
2016,08,25,03,58,13.20
2016,08,25,03,59,13.20
2016,08,25,04,00,13.20
2016,08,25,04,01,13.20
2016,08,25,04,02,13.20
2016,08,25,04,03,13.10
2016,08,25,04,04,13.10
2016,08,25,04,05,13.10
2016,08,25,04,06,13.10
2016,08,25,04,07,13.10
2016,08,25,04,08,13.10
2016,08,25,04,09,13.10
2016,08,25,04,10,13.10
2016,08,25,04,11,13.10
2016,08,25,04,12,13.10
2016,08,25,04,13,13.10
2016,08,25,04,14,13.00
2016,08,25,04,15,13.00
2016,08,25,04,16,13.00
2016,08,25,04,17,13.00
2016,08,25,04,18,13.00
2016,08,25,04,19,13.00
2016,08,25,04,20,13.00
2016,08,25,04,21,12.90
2016,08,25,04,22,12.90
2016,08,25,04,23,12.90
2016,08,25,04,24,12.90
2016,08,25,04,25,12.90
2016,08,25,04,26,12.90
2016,08,25,04,27,12.90
2016,08,25,04,28,12.90
2016,08,25,04,29,12.90
2016,08,25,04,30,12.90
2016,08,25,04,31,12.90
2016,08,25,04,32,12.90
2016,08,25,04,33,12.90
2016,08,25,04,34,12.90
2016,08,25,04,35,12.90
2016,08,25,04,36,12.90
2016,08,25,04,37,12.90
2016,08,25,04,38,12.90
2016,08,25,04,39,12.90
2016,08,25,04,40,12.90
2016,08,25,04,41,12.90
2016,08,25,04,42,12.90
2016,08,25,04,43,12.90
2016,08,25,04,44,12.90
2016,08,25,04,45,12.90
2016,08,25,04,46,12.90
2016,08,25,04,47,12.90
2016,08,25,04,48,12.90
2016,08,25,04,49,12.90
2016,08,25,04,50,12.90
2016,08,25,04,51,12.80
2016,08,25,04,52,12.80
2016,08,25,04,53,12.80
2016,08,25,04,54,12.80
2016,08,25,04,55,12.80
2016,08,25,04,56,12.80
2016,08,25,04,57,12.80
2016,08,25,04,58,12.80
2016,08,25,04,59,12.80
2016,08,25,05,00,12.80
2016,08,25,05,01,12.80
2016,08,25,05,02,12.80
2016,08,25,05,03,12.70
2016,08,25,05,04,12.70
2016,08,25,05,05,12.70
2016,08,25,05,06,12.70
2016,08,25,05,07,12.70
2016,08,25,05,08,12.70
2016,08,25,05,09,12.70
2016,08,25,05,10,12.70
2016,08,25,05,11,12.70
2016,08,25,05,12,12.60
2016,08,25,05,13,12.60
2016,08,25,05,14,12.60
2016,08,25,05,15,12.60
2016,08,25,05,16,12.60
2016,08,25,05,17,12.60
2016,08,25,05,18,12.60
2016,08,25,05,19,12.60
2016,08,25,05,20,12.60
2016,08,25,05,21,12.60
2016,08,25,05,22,12.60
2016,08,25,05,23,12.60
2016,08,25,05,24,12.60
2016,08,25,05,25,12.60
2016,08,25,05,26,12.60
2016,08,25,05,27,12.60
2016,08,25,05,28,12.60
2016,08,25,05,29,12.60
2016,08,25,05,30,12.60
2016,08,25,05,31,12.60
2016,08,25,05,32,12.60
2016,08,25,05,33,12.60
2016,08,25,05,34,12.60
2016,08,25,05,35,12.60
2016,08,25,05,36,12.60
2016,08,25,05,37,12.60
2016,08,25,05,38,12.50
2016,08,25,05,39,12.50
2016,08,25,05,40,12.50
2016,08,25,05,41,12.50
2016,08,25,05,42,12.50
2016,08,25,05,43,12.50
2016,08,25,05,44,12.50
2016,08,25,05,45,12.40
2016,08,25,05,46,12.40
2016,08,25,05,47,12.40
2016,08,25,05,48,12.40
2016,08,25,05,49,12.40
2016,08,25,05,50,12.40
2016,08,25,05,51,12.40
2016,08,25,05,52,12.40
2016,08,25,05,53,12.40
2016,08,25,05,54,12.40
2016,08,25,05,55,12.40
2016,08,25,05,56,12.40
2016,08,25,05,57,12.40
2016,08,25,05,58,12.40
2016,08,25,05,59,12.40
2016,08,25,06,00,12.40
2016,08,25,06,01,12.40
2016,08,25,06,02,12.40
2016,08,25,06,03,12.40
2016,08,25,06,04,12.40
2016,08,25,06,05,12.40
2016,08,25,06,06,12.40
2016,08,25,06,07,12.40
2016,08,25,06,08,12.40
2016,08,25,06,09,12.40
2016,08,25,06,10,12.40
2016,08,25,06,11,12.40
2016,08,25,06,12,12.40
2016,08,25,06,13,12.40
2016,08,25,06,14,12.40
2016,08,25,06,15,12.40
2016,08,25,06,16,12.40
2016,08,25,06,17,12.40
2016,08,25,06,18,12.40
2016,08,25,06,19,12.40
2016,08,25,06,20,12.40
2016,08,25,06,21,12.40
2016,08,25,06,22,12.40
2016,08,25,06,23,12.40
2016,08,25,06,24,12.40
2016,08,25,06,25,12.40
2016,08,25,06,26,12.30
2016,08,25,06,27,12.30
2016,08,25,06,28,12.30
2016,08,25,06,29,12.30
2016,08,25,06,30,12.30
2016,08,25,06,31,12.30
2016,08,25,06,32,12.30
2016,08,25,06,33,12.30
2016,08,25,06,34,12.30
2016,08,25,06,35,12.30
2016,08,25,06,36,12.30
2016,08,25,06,37,12.30
2016,08,25,06,38,12.30
2016,08,25,06,39,12.30
2016,08,25,06,40,12.30
2016,08,25,06,41,12.30
2016,08,25,06,42,12.30
2016,08,25,06,43,12.30
2016,08,25,06,44,12.30
2016,08,25,06,45,12.30
2016,08,25,06,46,12.30
2016,08,25,06,47,12.30
2016,08,25,06,48,12.30
2016,08,25,06,49,12.30
2016,08,25,06,50,12.30
2016,08,25,06,51,12.30
2016,08,25,06,52,12.30
2016,08,25,06,53,12.30
2016,08,25,06,54,12.30
2016,08,25,06,55,12.30
2016,08,25,06,56,12.30
2016,08,25,06,57,12.30
2016,08,25,06,58,12.30
2016,08,25,06,59,12.30
2016,08,25,07,00,12.30
2016,08,25,07,01,12.30
2016,08,25,07,02,12.30
2016,08,25,07,03,12.30
2016,08,25,07,04,12.30
2016,08,25,07,05,12.40
2016,08,25,07,06,12.40
2016,08,25,07,07,12.50
2016,08,25,07,08,12.50
2016,08,25,07,09,12.60
2016,08,25,07,10,12.60
2016,08,25,07,11,12.70
2016,08,25,07,12,12.70
2016,08,25,07,13,12.80
2016,08,25,07,14,12.80
2016,08,25,07,15,12.80
2016,08,25,07,16,12.90
2016,08,25,07,17,12.90
2016,08,25,07,18,12.90
2016,08,25,07,19,12.90
2016,08,25,07,20,12.90
2016,08,25,07,21,12.90
2016,08,25,07,22,12.90
2016,08,25,07,23,12.90
2016,08,25,07,24,12.90
2016,08,25,07,25,12.90
2016,08,25,07,26,13.00
2016,08,25,07,27,13.00
2016,08,25,07,28,13.00
2016,08,25,07,29,13.00
2016,08,25,07,30,13.00
2016,08,25,07,31,13.00
2016,08,25,07,32,13.00
2016,08,25,07,33,13.10
2016,08,25,07,34,13.10
2016,08,25,07,35,13.10
2016,08,25,07,36,13.10
2016,08,25,07,37,13.10
2016,08,25,07,38,13.20
2016,08,25,07,39,13.20
2016,08,25,07,40,13.20
2016,08,25,07,41,13.20
2016,08,25,07,42,13.30
2016,08,25,07,43,13.30
2016,08,25,07,44,13.30
2016,08,25,07,45,13.30
2016,08,25,07,46,13.40
2016,08,25,07,47,13.40
2016,08,25,07,48,13.40
2016,08,25,07,49,13.50
2016,08,25,07,50,13.50
2016,08,25,07,51,13.50
2016,08,25,07,52,13.60
2016,08,25,07,53,13.60
2016,08,25,07,54,13.70
2016,08,25,07,55,13.70
2016,08,25,07,56,13.80
2016,08,25,07,57,13.80
2016,08,25,07,58,13.90
2016,08,25,07,59,13.90
2016,08,25,08,00,14.00
2016,08,25,08,01,14.10
2016,08,25,08,02,14.20
2016,08,25,08,03,14.20
2016,08,25,08,04,14.30
2016,08,25,08,05,14.40
2016,08,25,08,06,14.40
2016,08,25,08,07,14.50
2016,08,25,08,08,14.60
2016,08,25,08,09,14.70
2016,08,25,08,10,14.80
2016,08,25,08,11,15.00
2016,08,25,08,12,15.00
2016,08,25,08,13,15.00
2016,08,25,08,14,15.10
2016,08,25,08,15,15.30
2016,08,25,08,16,15.40
2016,08,25,08,17,15.50
2016,08,25,08,18,15.70
2016,08,25,08,19,15.90
2016,08,25,08,20,16.10
2016,08,25,08,21,16.30
2016,08,25,08,22,16.40
2016,08,25,08,23,16.60
2016,08,25,08,24,16.70
2016,08,25,08,25,16.90
2016,08,25,08,26,17.00
2016,08,25,08,27,17.20
2016,08,25,08,28,17.40
2016,08,25,08,29,17.50
2016,08,25,08,30,17.70
2016,08,25,08,31,17.90
2016,08,25,08,32,18.10
2016,08,25,08,33,18.30
2016,08,25,08,34,18.50
2016,08,25,08,35,18.70
2016,08,25,08,36,18.80
2016,08,25,08,37,19.10
2016,08,25,08,38,19.30
2016,08,25,08,39,19.60
2016,08,25,08,40,19.90
2016,08,25,08,41,20.20
2016,08,25,08,42,20.50
2016,08,25,08,43,20.80
2016,08,25,08,44,21.00
2016,08,25,08,45,21.20
2016,08,25,08,46,21.40
2016,08,25,08,47,21.70
2016,08,25,08,48,21.80
2016,08,25,08,49,22.00
2016,08,25,08,50,22.20
2016,08,25,08,51,22.30
2016,08,25,08,52,22.50
2016,08,25,08,53,22.70
2016,08,25,08,54,22.80
2016,08,25,08,55,23.00
2016,08,25,08,56,23.20
2016,08,25,08,57,23.30
2016,08,25,08,58,23.40
2016,08,25,08,59,23.50
2016,08,25,09,00,23.60
2016,08,25,09,01,23.80
2016,08,25,09,02,23.90
2016,08,25,09,03,24.00
2016,08,25,09,04,24.10
2016,08,25,09,05,24.30
2016,08,25,09,06,24.40
2016,08,25,09,07,24.50
2016,08,25,09,08,24.60
2016,08,25,09,09,24.70
2016,08,25,09,10,24.80
2016,08,25,09,11,24.90
2016,08,25,09,12,25.00
2016,08,25,09,13,25.10
2016,08,25,09,14,25.10
2016,08,25,09,15,25.20
2016,08,25,09,16,25.20
2016,08,25,09,17,25.30
2016,08,25,09,18,25.20
2016,08,25,09,19,25.10
2016,08,25,09,20,25.10
2016,08,25,09,21,25.10
2016,08,25,09,22,25.00
2016,08,25,09,23,25.00
2016,08,25,09,24,25.00
2016,08,25,09,25,25.10
2016,08,25,09,26,25.10
2016,08,25,09,27,25.20
2016,08,25,09,28,25.20
2016,08,25,09,29,25.30
2016,08,25,09,30,25.30
2016,08,25,09,31,25.30
2016,08,25,09,32,25.20
2016,08,25,09,33,25.10
2016,08,25,09,34,25.00
2016,08,25,09,35,24.80
2016,08,25,09,36,24.70
2016,08,25,09,37,24.60
2016,08,25,09,38,24.50
2016,08,25,09,39,24.40
2016,08,25,09,40,24.40
2016,08,25,09,41,24.40
2016,08,25,09,42,24.40
2016,08,25,09,43,24.40
2016,08,25,09,44,24.50
2016,08,25,09,45,24.50
2016,08,25,09,46,24.60
2016,08,25,09,47,24.60
2016,08,25,09,48,24.60
2016,08,25,09,49,24.60
2016,08,25,09,50,24.60
2016,08,25,09,51,24.70
2016,08,25,09,52,24.70
2016,08,25,09,53,24.80
2016,08,25,09,54,24.80
2016,08,25,09,55,24.80
2016,08,25,09,56,24.80
2016,08,25,09,57,24.80
2016,08,25,09,58,24.90
2016,08,25,09,59,24.90
2016,08,25,10,00,25.00
2016,08,25,10,01,25.10
2016,08,25,10,02,25.20
2016,08,25,10,03,25.30
2016,08,25,10,04,25.40
2016,08,25,10,05,25.50
2016,08,25,10,06,25.50
2016,08,25,10,07,25.60
2016,08,25,10,08,25.60
2016,08,25,10,09,25.70
2016,08,25,10,10,25.70
2016,08,25,10,11,25.80
2016,08,25,10,12,25.80
2016,08,25,10,13,25.90
2016,08,25,10,14,25.90
2016,08,25,10,15,25.90
2016,08,25,10,16,26.00
2016,08,25,10,17,26.10
2016,08,25,10,18,26.10
2016,08,25,10,19,26.20
2016,08,25,10,20,26.20
2016,08,25,10,21,26.20
2016,08,25,10,22,26.20
2016,08,25,10,23,26.20
2016,08,25,10,24,26.30
2016,08,25,10,25,26.30
2016,08,25,10,26,26.30
2016,08,25,10,27,26.20
2016,08,25,10,28,26.20
2016,08,25,10,29,26.20
2016,08,25,10,30,26.20
2016,08,25,10,31,26.10
2016,08,25,10,32,26.10
2016,08,25,10,33,26.00
2016,08,25,10,34,26.00
2016,08,25,10,35,25.90
2016,08,25,10,36,26.00
2016,08,25,10,37,26.00
2016,08,25,10,38,26.10
2016,08,25,10,39,26.10
2016,08,25,10,40,26.10
2016,08,25,10,41,26.10
2016,08,25,10,42,26.10
2016,08,25,10,43,26.10
2016,08,25,10,44,26.10
2016,08,25,10,45,26.10
2016,08,25,10,46,26.20
2016,08,25,10,47,26.20
2016,08,25,10,48,26.20
2016,08,25,10,49,26.30
2016,08,25,10,50,26.30
2016,08,25,10,51,26.30
2016,08,25,10,52,26.30
2016,08,25,10,53,26.30
2016,08,25,10,54,26.30
2016,08,25,10,55,26.30
2016,08,25,10,56,26.40
2016,08,25,10,57,26.40
2016,08,25,10,58,26.50
2016,08,25,10,59,26.50
2016,08,25,11,00,26.60
2016,08,25,11,01,26.70
2016,08,25,11,02,26.70
2016,08,25,11,03,26.80
2016,08,25,11,04,26.80
2016,08,25,11,05,26.80
2016,08,25,11,06,26.90
2016,08,25,11,07,26.90
2016,08,25,11,08,26.90
2016,08,25,11,09,27.00
2016,08,25,11,10,27.00
2016,08,25,11,11,27.10
2016,08,25,11,12,27.10
2016,08,25,11,13,27.20
2016,08,25,11,14,27.20
2016,08,25,11,15,27.20
2016,08,25,11,16,27.20
2016,08,25,11,17,27.30
2016,08,25,11,18,27.30
2016,08,25,11,19,27.30
2016,08,25,11,20,27.30
2016,08,25,11,21,27.40
2016,08,25,11,22,27.40
2016,08,25,11,23,27.50
2016,08,25,11,24,27.60
2016,08,25,11,25,27.60
2016,08,25,11,26,27.70
2016,08,25,11,27,27.70
2016,08,25,11,28,27.70
2016,08,25,11,29,27.80
2016,08,25,11,30,27.80
2016,08,25,11,31,27.80
2016,08,25,11,32,27.80
2016,08,25,11,33,27.80
2016,08,25,11,34,27.80
2016,08,25,11,35,27.80
2016,08,25,11,36,27.80
2016,08,25,11,37,27.90
2016,08,25,11,38,27.90
2016,08,25,11,39,27.90
2016,08,25,11,40,28.00
2016,08,25,11,41,28.00
2016,08,25,11,42,28.00
2016,08,25,11,43,28.10
2016,08,25,11,44,28.10
2016,08,25,11,45,28.10
2016,08,25,11,46,28.10
2016,08,25,11,47,28.10
2016,08,25,11,48,28.10
2016,08,25,11,49,28.10
2016,08,25,11,50,28.20
2016,08,25,11,51,28.20
2016,08,25,11,52,28.20
2016,08,25,11,53,28.20
2016,08,25,11,54,28.10
2016,08,25,11,55,28.10
2016,08,25,11,56,28.00
2016,08,25,11,57,28.00
2016,08,25,11,58,28.00
2016,08,25,11,59,27.90
2016,08,25,12,00,28.00
2016,08,25,12,01,28.00
2016,08,25,12,02,28.10
2016,08,25,12,03,28.10
2016,08,25,12,04,28.10
2016,08,25,12,05,28.20
2016,08,25,12,06,28.20
2016,08,25,12,07,28.20
2016,08,25,12,08,28.30
2016,08,25,12,09,28.30
2016,08,25,12,10,28.40
2016,08,25,12,11,28.40
2016,08,25,12,12,28.40
2016,08,25,12,13,28.30
2016,08,25,12,14,28.40
2016,08,25,12,15,28.40
2016,08,25,12,16,28.40
2016,08,25,12,17,28.40
2016,08,25,12,18,28.50
2016,08,25,12,19,28.60
2016,08,25,12,20,28.60
2016,08,25,12,21,28.60
2016,08,25,12,22,28.60
2016,08,25,12,23,28.70
2016,08,25,12,24,28.70
2016,08,25,12,25,28.70
2016,08,25,12,26,28.80
2016,08,25,12,27,28.90
2016,08,25,12,28,29.00
2016,08,25,12,29,29.00
2016,08,25,12,30,29.10
2016,08,25,12,31,29.10
2016,08,25,12,32,29.10
2016,08,25,12,33,29.10
2016,08,25,12,34,29.10
2016,08,25,12,35,29.20
2016,08,25,12,36,29.20
2016,08,25,12,37,29.20
2016,08,25,12,38,29.20
2016,08,25,12,39,29.20
2016,08,25,12,40,29.30
2016,08,25,12,41,29.20
2016,08,25,12,42,29.20
2016,08,25,12,43,29.20
2016,08,25,12,44,29.10
2016,08,25,12,45,29.20
2016,08,25,12,46,29.10
2016,08,25,12,47,29.10
2016,08,25,12,48,29.10
2016,08,25,12,49,29.10
2016,08,25,12,50,29.00
2016,08,25,12,51,29.10
2016,08,25,12,52,29.10
2016,08,25,12,53,29.10
2016,08,25,12,54,29.20
2016,08,25,12,55,29.20
2016,08,25,12,56,29.20
2016,08,25,12,57,29.20
2016,08,25,12,58,29.20
2016,08,25,12,59,29.30
2016,08,25,13,00,29.40
2016,08,25,13,01,29.50
2016,08,25,13,02,29.50
2016,08,25,13,03,29.60
2016,08,25,13,04,29.60
2016,08,25,13,05,29.60
2016,08,25,13,06,29.60
2016,08,25,13,07,29.60
2016,08,25,13,08,29.60
2016,08,25,13,09,29.60
2016,08,25,13,10,29.50
2016,08,25,13,11,29.40
2016,08,25,13,12,29.40
2016,08,25,13,13,29.40
2016,08,25,13,14,29.50
2016,08,25,13,15,29.50
2016,08,25,13,16,29.60
2016,08,25,13,17,29.70
2016,08,25,13,18,29.80
2016,08,25,13,19,29.90
2016,08,25,13,20,30.00
2016,08,25,13,21,30.00
2016,08,25,13,22,30.10
2016,08,25,13,23,30.20
2016,08,25,13,24,30.20
2016,08,25,13,25,30.20
2016,08,25,13,26,30.20
2016,08,25,13,27,30.20
2016,08,25,13,28,30.10
2016,08,25,13,29,30.10
2016,08,25,13,30,30.10
2016,08,25,13,31,30.10
2016,08,25,13,32,30.10
2016,08,25,13,33,30.20
2016,08,25,13,34,30.20
2016,08,25,13,35,30.20
2016,08,25,13,36,30.20
2016,08,25,13,37,30.20
2016,08,25,13,38,30.20
2016,08,25,13,39,30.10
2016,08,25,13,40,30.00
2016,08,25,13,41,30.00
2016,08,25,13,42,29.90
2016,08,25,13,43,29.90
2016,08,25,13,44,29.90
2016,08,25,13,45,29.90
2016,08,25,13,46,29.90
2016,08,25,13,47,29.90
2016,08,25,13,48,29.80
2016,08,25,13,49,29.80
2016,08,25,13,50,29.80
2016,08,25,13,51,29.80
2016,08,25,13,52,29.80
2016,08,25,13,53,29.80
2016,08,25,13,54,29.80
2016,08,25,13,55,29.80
2016,08,25,13,56,29.70
2016,08,25,13,57,29.80
2016,08,25,13,58,29.80
2016,08,25,13,59,29.90
2016,08,25,14,00,29.90
2016,08,25,14,01,30.00
2016,08,25,14,02,30.10
2016,08,25,14,03,30.20
2016,08,25,14,04,30.30
2016,08,25,14,05,30.30
2016,08,25,14,06,30.20
2016,08,25,14,07,30.20
2016,08,25,14,08,30.20
2016,08,25,14,09,30.20
2016,08,25,14,10,30.30
2016,08,25,14,11,30.30
2016,08,25,14,12,30.30
2016,08,25,14,13,30.30
2016,08,25,14,14,30.30
2016,08,25,14,15,30.40
2016,08,25,14,16,30.40
2016,08,25,14,17,30.30
2016,08,25,14,18,30.30
2016,08,25,14,19,30.30
2016,08,25,14,20,30.30
2016,08,25,14,21,30.30
2016,08,25,14,22,30.30
2016,08,25,14,23,30.30
2016,08,25,14,24,30.30
2016,08,25,14,25,30.40
2016,08,25,14,26,30.40
2016,08,25,14,27,30.40
2016,08,25,14,28,30.40
2016,08,25,14,29,30.40
2016,08,25,14,30,30.40
2016,08,25,14,31,30.40
2016,08,25,14,32,30.40
2016,08,25,14,33,30.40
2016,08,25,14,34,30.40
2016,08,25,14,35,30.30
2016,08,25,14,36,30.20
2016,08,25,14,37,30.20
2016,08,25,14,38,30.30
2016,08,25,14,39,30.30
2016,08,25,14,40,30.40
2016,08,25,14,41,30.50
2016,08,25,14,42,30.50
2016,08,25,14,43,30.50
2016,08,25,14,44,30.50
2016,08,25,14,45,30.40
2016,08,25,14,46,30.40
2016,08,25,14,47,30.40
2016,08,25,14,48,30.40
2016,08,25,14,49,30.40
2016,08,25,14,50,30.40
2016,08,25,14,51,30.40
2016,08,25,14,52,30.50
2016,08,25,14,53,30.60
2016,08,25,14,54,30.60
2016,08,25,14,55,30.60
2016,08,25,14,56,30.50
2016,08,25,14,57,30.40
2016,08,25,14,58,30.40
2016,08,25,14,59,30.40
2016,08,25,15,00,30.50
2016,08,25,15,01,30.50
2016,08,25,15,02,30.50
2016,08,25,15,03,30.50
2016,08,25,15,04,30.50
2016,08,25,15,05,30.50
2016,08,25,15,06,30.50
2016,08,25,15,07,30.50
2016,08,25,15,08,30.60
2016,08,25,15,09,30.60
2016,08,25,15,10,30.50
2016,08,25,15,11,30.50
2016,08,25,15,12,30.40
2016,08,25,15,13,30.40
2016,08,25,15,14,30.30
2016,08,25,15,15,30.30
2016,08,25,15,16,30.30
2016,08,25,15,17,30.30
2016,08,25,15,18,30.30
2016,08,25,15,19,30.30
2016,08,25,15,20,30.30
2016,08,25,15,21,30.40
2016,08,25,15,22,30.40
2016,08,25,15,23,30.30
2016,08,25,15,24,30.20
2016,08,25,15,25,30.10
2016,08,25,15,26,30.10
2016,08,25,15,27,30.10
2016,08,25,15,28,30.10
2016,08,25,15,29,30.20
2016,08,25,15,30,30.30
2016,08,25,15,31,30.30
2016,08,25,15,32,30.30
2016,08,25,15,33,30.40
2016,08,25,15,34,30.50
2016,08,25,15,35,30.50
2016,08,25,15,36,30.60
2016,08,25,15,37,30.60
2016,08,25,15,38,30.60
2016,08,25,15,39,30.60
2016,08,25,15,40,30.60
2016,08,25,15,41,30.60
2016,08,25,15,42,30.60
2016,08,25,15,43,30.50
2016,08,25,15,44,30.50
2016,08,25,15,45,30.40
2016,08,25,15,46,30.40
2016,08,25,15,47,30.40
2016,08,25,15,48,30.40
2016,08,25,15,49,30.40
2016,08,25,15,50,30.40
2016,08,25,15,51,30.40
2016,08,25,15,52,30.30
2016,08,25,15,53,30.30
2016,08,25,15,54,30.30
2016,08,25,15,55,30.30
2016,08,25,15,56,30.30
2016,08,25,15,57,30.30
2016,08,25,15,58,30.30
2016,08,25,15,59,30.30
2016,08,25,16,00,30.30
2016,08,25,16,01,30.30
2016,08,25,16,02,30.20
2016,08,25,16,03,30.10
2016,08,25,16,04,30.10
2016,08,25,16,05,30.00
2016,08,25,16,06,30.00
2016,08,25,16,07,30.00
2016,08,25,16,08,30.00
2016,08,25,16,09,29.90
2016,08,25,16,10,29.90
2016,08,25,16,11,29.90
2016,08,25,16,12,29.90
2016,08,25,16,13,29.90
2016,08,25,16,14,29.90
2016,08,25,16,15,29.90
2016,08,25,16,16,29.90
2016,08,25,16,17,29.90
2016,08,25,16,18,29.90
2016,08,25,16,19,29.90
2016,08,25,16,20,29.90
2016,08,25,16,21,29.90
2016,08,25,16,22,30.00
2016,08,25,16,23,30.00
2016,08,25,16,24,29.90
2016,08,25,16,25,29.90
2016,08,25,16,26,29.90
2016,08,25,16,27,29.90
2016,08,25,16,28,29.90
2016,08,25,16,29,29.90
2016,08,25,16,30,30.00
2016,08,25,16,31,30.00
2016,08,25,16,32,30.10
2016,08,25,16,33,30.10
2016,08,25,16,34,30.10
2016,08,25,16,35,30.10
2016,08,25,16,36,30.20
2016,08,25,16,37,30.20
2016,08,25,16,38,30.20
2016,08,25,16,39,30.20
2016,08,25,16,40,30.20
2016,08,25,16,41,30.20
2016,08,25,16,42,30.10
2016,08,25,16,43,30.10
2016,08,25,16,44,30.10
2016,08,25,16,45,30.10
2016,08,25,16,46,30.10
2016,08,25,16,47,30.10
2016,08,25,16,48,30.00
2016,08,25,16,49,30.00
2016,08,25,16,50,29.90
2016,08,25,16,51,29.90
2016,08,25,16,52,29.90
2016,08,25,16,53,29.90
2016,08,25,16,54,29.80
2016,08,25,16,55,29.80
2016,08,25,16,56,29.80
2016,08,25,16,57,29.80
2016,08,25,16,58,29.70
2016,08,25,16,59,29.70
2016,08,25,17,00,29.70
2016,08,25,17,01,29.70
2016,08,25,17,02,29.70
2016,08,25,17,03,29.70
2016,08,25,17,04,29.70
2016,08,25,17,05,29.70
2016,08,25,17,06,29.80
2016,08,25,17,07,29.80
2016,08,25,17,08,29.70
2016,08,25,17,09,29.70
2016,08,25,17,10,29.70
2016,08,25,17,11,29.70
2016,08,25,17,12,29.70
2016,08,25,17,13,29.70
2016,08,25,17,14,29.70
2016,08,25,17,15,29.70
2016,08,25,17,16,29.70
2016,08,25,17,17,29.70
2016,08,25,17,18,29.70
2016,08,25,17,19,29.70